Location: Pel�-Koumbol�
(14.9505°N, 3.0798°W)
Time: 04:11:23
(UTC+00:00)

Daily predictions for brighter satellites

Satellite Brightness Start Highest point End
(mag) Time Altitude Azimuth Time Altitude Azimuth Time Altitude Azimuth
Cosmos 2278 Rocket 3.8 04:05:54 28° SE 04:05:54 28° SE 04:08:42 10° SSE
CZ-3A R/B 3.1 04:10:00 79° ENE 04:10:00 79° ENE 04:31:19 10° ESE
ATLAS 2AS CENTAUR RB 3.4 04:13:27 55° S 04:13:41 55° S 04:41:58 10° ESE
CZ-3 R/B 3.7 04:15:04 40° WNW 04:28:41 84° NNE 04:38:02 10° ESE
Aureole 1 Rocket 4.5 04:25:01 10° S 04:30:55 63° E 04:38:28 10° NNE
Cosmos 1339 Rocket 4.2 04:33:11 10° S 04:39:16 84° W 04:45:20 10° N
Lacrosse 4 Rocket 3.4 04:39:53 21° NNE 04:41:54 29° ENE 04:45:45 10° SE
Cosmos 407 Rocket 4.2 04:38:09 10° S 04:43:19 53° ESE 04:48:29 10° NNE
ARIANE 5 R/B 3.7 04:47:47 34° SSW 04:48:04 34° SSW 04:51:13 10° SE
Cosmos 1302 Rocket 3.9 04:49:00 76° N 04:49:25 89° ENE 04:54:39 10° SSE
Atlas Centaur 2 3.3 04:45:42 33° SW 04:49:46 66° SSE 04:58:13 10° ENE
Cosmos 1603 3.6 04:46:56 29° SSW 04:49:57 89° WNW 04:55:41 10° NNE
Okean 3 Rocket 4.3 04:51:32 45° S 04:51:32 45° S 04:54:36 10° S
FUSE 3.8 04:52:17 72° NNW 04:52:20 72° NNW 04:57:44 10° ENE
Cosmos 1943 3.2 04:51:37 10° SSW 04:57:13 78° ESE 05:02:49 10° NNE
Delta 142 4.2 04:57:34 52° NNW 04:58:33 62° NNE 05:04:44 10° ESE
Cosmos 1190 Rocket 4.1 05:00:04 10° S 05:05:16 78° ESE 05:10:31 10° NNE
FENGYUN 3A 3.9 05:00:54 10° NNE 05:06:19 71° ESE 05:11:43 10° S
ASTRO E2 4.2 05:07:01 25° N 05:07:45 26° NNE 05:11:08 10° E
Aurora 2 Rocket 3.7 05:09:35 29° NNW 05:09:35 29° NNW 05:13:08 10° NE
Cosmos 1535 Rocket 4.4 05:03:45 10° NNW 05:09:47 59° W 05:15:46 10° S
Palapa B4 Rocket 4.4 05:07:44 39° WNW 05:10:36 82° NNE 05:21:04 10° E
Okean O Rocket 3.7 05:07:39 10° NE 05:11:23 28° E 05:15:06 10° SSE
GPS 2-18 Rocket1 3.0 05:12:21 65° NNW 05:12:39 69° NNE 05:16:31 10° E
STARLINK-1052 4.4 05:11:06 26° N 05:13:04 47° NE 05:17:03 10° SE
GPS 2-14 Rocket1 4.2 05:12:14 23° SSW 05:13:50 31° SSE 05:17:31 10° E
Cosmos 2084 3.4 05:13:45 27° SW 05:16:10 73° WNW 05:20:38 10° NNE
Cosmos 614 Rocket 4.0 05:12:59 10° SSW 05:17:54 50° WNW 05:22:52 10° N
GPS 2-04 Rocket1 3.9 05:18:52 22° SSW 05:18:52 22° SSW 05:20:57 10° SSE
ATLAS 2A CENTAUR R/B 4.3 05:05:37 25° WNW 05:20:41 69° SW 05:26:23 10° SE
STARLINK-1031 3.5 05:20:35 31° NNW 05:22:19 74° NE 05:26:13 10° SE
STARLINK-1033 3.9 05:20:38 24° NNW 05:22:58 64° NE 05:27:04 10° SE
CZ-4B R/B 4.2 05:18:30 10° NNE 05:23:32 45° ESE 05:28:34 10° S
Meteor 1-27 4.3 05:20:06 10° SSW 05:25:30 49° W 05:30:51 10° N
ALOS 2.2 05:24:03 10° N 05:28:36 57° WNW 05:33:10 10° SSW
USA 267 3.3 05:26:05 10° SSE 05:32:31 63° SW 05:38:23 13° NW
STARLINK-1024 3.6 05:30:15 21° NW 05:32:57 87° NE 05:37:05 10° SE
USA 229 DEB 4.0 05:25:51 10° NNW 05:33:26 89° ENE 05:41:08 10° SSE
USA 229 4.0 05:25:57 10° NNW 05:33:31 88° ENE 05:41:13 10° SSE
COSMO-SKYMED 1 3.4 05:29:40 10° SSE 05:33:53 53° ENE 05:38:05 10° N
NOSS 3-3 (A) 3.9 05:28:34 10° SSW 05:34:09 76° ESE 05:39:58 10° NNE
NOSS 3-3 (C) 3.9 05:28:39 10° SSW 05:34:14 74° ESE 05:40:05 10° NNE
PSLV R/B 4.3 05:33:10 10° N 05:36:38 35° WNW 05:40:10 10° SW
Delta 168 4.5 05:36:57 18° NW 05:38:44 22° NNW 05:41:46 10° NE
STARLINK-1032 3.5 05:39:50 17° NW 05:42:53 70° SW 05:46:59 10° SSE
PAYLOAD B 4.2 05:38:46 10° N 05:44:16 69° WNW 05:49:45 10° SSW
EXPRESS MD2 2.0 05:44:22 22° NNW 05:45:33 69° NE 05:47:42 10° SE
Cosmos 1992 Rocket 3.9 05:40:35 10° NNW 05:45:46 71° WSW 05:50:57 10° S
Cosmos 2278 Rocket 4.0 05:47:50 11° WSW 05:47:50 11° WSW 05:48:45 10° WSW
GPS 2-12 Rocket1 3.1 05:43:52 20° WNW 05:47:10 78° NNE 05:51:48 10° E
STARLINK-1011 3.7 05:44:36 15° NW 05:47:50 60° SW 05:51:54 10° SSE
Cosmos 2221 3.6 05:46:16 10° SW 05:49:30 21° W 05:52:44 10° NNW
Cosmos 1825 3.6 05:49:45 18° W 05:50:06 18° W 05:52:42 10° SW
Cosmos 1400 Rocket 3.6 05:46:33 10° S 05:50:23 55° E 05:54:17 10° NNE
NOAA 6 4.0 05:46:21 10° N 05:51:28 72° WNW 05:56:34 10° SSW
SWIFT 3.1 05:48:59 17° WNW 05:51:50 39° N 05:55:50 10° ENE
STARLINK-1036 3.8 05:49:24 14° NW 05:52:48 51° WSW 05:56:49 10° SSE
Cosmos 1869 4.0 05:49:44 10° SSW 05:53:19 31° W 05:56:52 10° NNW
ARIANE 3 DEB 4.1 05:55:52 10° SSW 05:56:54 12° S 05:58:00 10° SSE
STARLINK-1044 4.0 05:54:10 12° NW 05:57:46 44° SW 06:01:42 10° SSE
Centaur D-1A AC-32 3.6 05:59:10 10° NW 06:02:49 50° NNE 06:13:36 10° E
STARLINK-1037 4.4 06:03:58 10° WNW 06:07:42 33° WSW 06:11:25 10° S
SMAP 3.6 06:05:22 10° NNE 06:09:58 65° E 06:14:35 10° S
NATO 3D Rocket 3.6 06:11:01 10° W 06:16:00 52° NNW 06:20:34 10° ENE
